GW5434 Weather Reports


time (UTC)temp
F
wind
direction
speed
knots
gust
knots
rain 1hr
in
rain 24hr
in
rain mn
in
humidity
%
barometer
mb
20260906013014 80 111 0.0 0.0 0.00 0.00 0.00 84 1012.3
20260906011523 81 225 0.0 0.0 0.00 0.00 0.00 81 1012.2
20260906010020 82 152 0.0 0.9 0.00 0.00 0.00 80 1012.2
20260906004505 83 171 0.9 1.7 0.00 0.00 0.00 78 1011.9
20260906003010 84 209 0.0 4.3 0.00 0.00 0.00 77 1011.9
20260906001518 85 120 1.7 6.1 0.00 0.00 0.00 76 1011.9
20260906000024 86 175 3.5 8.7 0.00 0.00 0.00 74 1011.9
20260905234520 88 123 0.0 0.9 0.00 0.00 0.00 74 1011.8
20260905233012 91 140 0.0 0.9 0.00 0.00 0.00 65 1011.7
20260905231515 92 139 0.0 0.9 0.00 0.00 0.00 63 1011.9
20260905230019 93 86 0.0 2.6 0.00 0.00 0.00 62 1011.7
20260905224526 94 327 1.7 3.5 0.00 0.00 0.00 59 1011.7
20260905223031 92 166 1.7 5.2 0.00 0.00 0.00 61 1011.6
20260905221513 93 49 1.7 4.3 0.00 0.00 0.00 59 1011.6
20260905220014 93 27 0.9 6.1 0.00 0.00 0.00 60 1011.5
20260905214524 92 351 0.9 3.5 0.00 0.01 0.00 62 1011.7
20260905213030 93 25 0.9 5.2 0.00 0.01 0.00 60 1012.0
20260905211528 93 91 0.9 5.2 0.00 0.01 0.00 62 1012.1
20260905210013 92 56 2.6 5.2 0.00 0.01 0.00 62 1012.1
20260905204519 92 41 2.6 7.0 0.00 0.01 0.00 63 1012.5
20260905203021 92 155 1.7 5.2 0.00 0.01 0.00 65 1012.7
20260905201530 92 110 3.5 10.4 0.00 0.01 0.00 64 1013.0
20260905200039 92 122 0.9 3.5 0.00 0.01 0.00 66 1012.8
20260905194515 92 104 1.7 4.3 0.00 0.01 0.00 64 1012.9
20260905193022 91 30 0.9 8.7 0.00 0.01 0.00 66 1013.0
20260905191532 91 125 1.7 4.3 0.00 0.01 0.00 66 1013.1
20260905190021 91 89 2.6 6.1 0.00 0.01 0.00 64 1013.4
20260905184511 92 118 0.9 7.0 0.00 0.01 0.00 62 1013.9
20260905183016 91 53 1.7 5.2 0.00 0.01 0.00 67 1014.1
20260905181525 90 333 0.9 2.6 0.00 0.01 0.00 69 1014.1
20260905180026 90 151 0.0 3.5 0.00 0.01 0.00 68 1014.3
20260905174507 89 341 1.7 5.2 0.00 0.01 0.00 70 1014.6
20260905173010 87 328 2.6 5.2 0.00 0.04 0.00 73 1014.8
20260905171517 87 4 2.6 7.0 0.00 0.07 0.00 73 1015.0
20260905170023 88 357 1.7 6.1 0.00 0.07 0.00 73 1015.0
20260905164534 87 21 0.9 8.7 0.00 0.07 0.00 76 1015.0
20260905163031 86 330 2.6 7.8 0.00 0.07 0.00 75 1015.2
20260905161531 85 130 0.0 4.3 0.00 0.07 0.00 79 1015.5
20260905160019 83 5 1.7 4.3 0.00 0.25 0.00 81 1015.6
20260905154523 83 289 0.9 2.6 0.00 0.33 0.00 81 1015.7
20260905153045 83 79 0.0 0.9 0.00 0.35 0.00 83 1015.6
20260905151539 81 70 0.0 2.6 0.00 0.35 0.00 86 1015.5
20260905150032 80 42 0.0 2.6 0.00 0.35 0.00 87 1015.5
20260905144523 79 334 0.9 4.3 0.00 0.35 0.00 87 1015.5
20260905143030 78 276 0.0 0.0 0.00 0.35 0.00 91 1015.4
20260905141530 76 324 0.0 1.7 0.00 0.35 0.00 94 1015.5
20260905140032 76 24 0.0 1.7 0.00 0.35 0.00 95 1015.5
20260905134522 76 40 0.0 1.7 0.00 0.35 0.00 95 1015.4
20260905133030 76 346 0.0 1.7 0.00 0.35 0.00 96 1015.3
20260905131536 75 344 0.0 1.7 0.00 0.35 0.00 96 1015.3
20260905130039 75 110 0.0 0.0 0.00 0.35 0.00 96 1015.0
20260905124514 75 110 0.0 0.9 0.00 0.35 0.00 96 1015.0
20260905123017 75 82 0.0 1.7 0.00 0.35 0.00 96 1015.0
20260905121524 75 44 0.0 1.7 0.00 0.35 0.00 96 1014.8
20260905120027 75 345 0.0 1.7 0.00 0.35 0.00 96 1014.5
20260905114532 75 184 0.0 0.0 0.00 0.35 0.00 96 1014.4
20260905113017 75 185 0.0 0.0 0.00 0.35 0.00 96 1014.4
20260905111540 75 185 0.0 0.9 0.00 0.35 0.00 96 1014.4
20260905110027 75 184 0.0 0.0 0.00 0.35 0.00 96 1014.4
20260905104529 75 184 0.0 0.0 0.00 0.35 0.00 96 1014.4
20260905103031 75 200 0.0 0.0 0.00 0.35 0.00 96 1014.4
20260905101516 75 200 0.0 0.0 0.00 0.35 0.00 96 1014.5
20260905100025 75 186 0.0 0.9 0.00 0.35 0.00 96 1014.6
20260905094526 75 184 0.0 0.0 0.00 0.35 0.00 96 1014.5
20260905093030 75 184 0.0 0.0 0.00 0.35 0.00 95 1014.4
20260905091534 75 184 0.0 0.0 0.00 0.35 0.00 96 1014.2
20260905090019 75 184 0.0 0.0 0.00 0.35 0.00 95 1014.3
20260905084527 75 227 0.0 0.0 0.00 0.35 0.00 95 1014.2
20260905083028 75 227 0.0 0.0 0.00 0.35 0.00 96 1014.1
20260905081534 75 227 0.0 0.0 0.00 0.35 0.00 95 1014.0
20260905080031 75 227 0.0 0.9 0.00 0.35 0.00 95 1013.9
20260905074521 75 185 0.0 0.9 0.00 0.35 0.00 95 1013.8
20260905073034 75 185 0.0 0.0 0.00 0.35 0.00 95 1013.9
20260905071541 75 216 0.0 0.9 0.00 0.35 0.00 95 1014.0
20260905070033 75 139 0.0 0.9 0.00 0.35 0.00 95 1014.0
20260905064536 75 106 0.0 0.0 0.00 0.35 0.00 95 1014.0
20260905063023 75 106 0.0 0.0 0.00 0.35 0.00 95 1014.0
20260905061531 75 106 0.0 0.0 0.00 0.35 0.00 95 1014.0
20260905060036 75 106 0.0 0.0 0.00 0.35 0.00 94 1013.9
20260905054542 75 106 0.0 0.0 0.00 0.35 0.00 94 1014.0
20260905053033 75 107 0.0 0.0 0.00 0.35 0.00 94 1013.8
20260905051527 75 106 0.0 0.0 0.00 0.35 0.00 94 1013.9
20260905050031 75 106 0.0 0.9 0.00 0.35 0.00 94 1014.0
20260905044530 76 106 0.0 0.0 0.00 0.35 0.35 94 1014.1
20260905043031 76 106 0.0 0.0 0.00 0.35 0.35 94 1014.2
20260905041533 76 73 0.0 0.0 0.00 0.35 0.35 94 1014.4
20260905040029 76 122 0.0 0.0 0.00 0.35 0.35 94 1014.5
20260905034509 77 122 0.0 0.0 0.00 0.35 0.35 94 1014.7
20260905033013 77 122 0.0 0.0 0.00 0.35 0.35 94 1014.9
20260905031520 77 221 0.0 1.7 0.00 0.35 0.35 94 1014.7
20260905030024 77 215 0.0 0.0 0.00 0.35 0.35 94 1015.1
20260905024530 77 110 0.0 0.0 0.00 0.35 0.35 94 1015.2
20260905023018 77 110 0.0 0.0 0.00 0.35 0.35 94 1014.9
20260905021516 77 110 0.0 0.0 0.00 0.35 0.35 93 1014.9
20260905020024 77 110 0.0 0.0 0.00 0.35 0.35 93 1014.6
20260905014526 78 110 0.0 0.0 0.00 0.35 0.35 93 1014.6